[[{"header":{"parameterUnit":"m.s-1","parameterCategory":1,"la1":30.2991,"la2":30.254,"lo1":-89.0895,"lo2":-89.0444,"dy":0.0017,"dx":0.0017,"nx":28,"ny":28,"refTime":"2023-10-22T03:00:00:Z","depth":0,"parameterNumber":2,"parameterNumberName":"U-component_of_WINDS"},"data":[0,0,0,0,0,0,0,0,0,0,0,0,0,0,0,0,0,0,0,0,0,0,0,0,0,0,0,0,0,0,0,0,0,0,0,0,0,0,0,0,0,0,0,0,0,0,0,0,0,0,0,0,0,0,0,0,0,0,-2.3029,-2.303,0,-2.3076,-2.3077,-2.3077,-2.3069,-2.3068,-2.3067,-2.3066,-2.3117,-2.3119,-2.3122,0,0,0,0,0,0,0,0,0,0,0,0,0,-2.2937,-2.2938,-2.3029,-2.303,-2.303,-2.3076,-2.3077,-2.3077,-2.3069,-2.3068,-2.3067,-2.3066,-2.3117,-2.3119,-2.3122,0,0,0,0,0,0,0,0,0,0,0,0,0,-2.298,-2.2939,-2.3029,-2.3032,-2.3032,-2.3076,-2.3077,-2.3077,-2.3069,-2.3068,-2.3067,-2.3066,-2.3116,-2.3119,-2.3122,-2.3167,0,0,-2.3132,-2.3133,0,0,0,0,0,0,0,0,-2.2977,-2.2983,-2.3031,-2.3032,-2.3032,-2.3065,-2.3063,-2.3108,-2.3069,-2.3055,-2.3066,-2.3065,-2.3101,-2.3106,-2.3117,-2.3169,-2.3171,-2.3132,-2.3134,-2.3135,-2.3136,0,0,0,0,0,0,0,-2.2974,-2.2981,-2.3048,-2.3031,-2.3033,-2.3032,-2.3037,-2.3071,-2.3085,-2.3056,-2.3056,-2.3061,-2.3101,-2.3114,-2.3118,-2.3172,-2.3132,-2.3135,-2.3137,-2.3138,-2.3265,-2.3266,0,0,0,0,0,0,-2.297,-2.2979,-2.3046,-2.3049,-2.3001,-2.3035,-2.304,-2.3056,-2.3084,-2.3087,-2.3062,-2.3061,-2.3109,-2.3115,-2.312,-2.3174,-2.3135,-2.3138,-2.314,-2.3263,-2.3265,-2.3267,0,0,0,0,0,0,-2.2968,-2.2976,-2.3044,-2.3014,-2.3022,-2.3037,-2.3056,-2.3058,-2.307,-2.3089,-2.3092,-2.3072,-2.3108,-2.3116,-2.3155,-2.3176,-2.314,-2.3143,-2.3262,-2.3264,-2.3266,-2.3283,0,0,0,0,0,0,-2.2965,-2.2975,-2.2991,-2.3014,-2.3024,-2.3078,-2.3057,-2.3059,-2.3075,-2.3074,-2.3099,-2.3102,-2.3108,-2.3151,-2.3158,-2.318,-2.3145,-2.326,-2.3263,-2.3265,-2.3281,-2.3286,-2.329,0,0,0,0,0,-2.2962,-2.2995,-2.2992,-2.3,-2.3044,-2.3079,-2.3085,-2.309,-2.3077,-2.3094,-2.3106,-2.3101,-2.3173,-2.3155,-2.3164,-2.3186,-2.3259,-2.3262,-2.3265,-2.3279,-2.3285,-2.329,0,0,0,0,0,0,-2.2975,-2.2998,-2.2995,-2.3036,-2.3055,-2.3077,-2.3098,-2.3096,-2.312,-2.3117,-2.3124,-2.313,-2.317,-2.3183,-2.3162,-2.3232,-2.3214,-2.3219,-2.3222,-2.3227,-2.3232,-2.3227,-2.3148,0,0,0,0,0,-2.2982,-2.3007,-2.3027,-2.3061,-2.3071,-2.3083,-2.3098,-2.3101,-2.3122,-2.313,-2.3145,-2.3167,-2.3194,-2.3212,-2.3238,-2.3284,-2.3289,-2.3304,-2.3308,-2.3312,-2.3316,-2.3341,-2.3348,-2.3277,-2.3277,-2.3277,0,0,-2.2998,-2.3014,-2.3029,-2.3064,-2.3079,-2.3106,-2.309,-2.3119,-2.3139,-2.3135,-2.3172,-2.3185,-2.321,-2.3252,-2.3272,-2.3264,-2.3337,-2.3316,-2.3319,-2.3321,-2.3346,-2.3352,-2.3358,-2.328,-2.3279,-2.3279,0,0,-2.304,-2.3054,-2.3084,-2.31,-2.3124,-2.3132,-2.3139,-2.3162,-2.317,-2.3208,-2.3205,-2.3231,-2.3278,-2.3295,-2.331,-2.3362,-2.3358,-2.337,-2.3393,-2.3418,-2.3424,-2.3429,-2.3447,-2.3453,-2.3375,-2.3375,-2.3375,0,-2.3056,-2.3095,-2.3101,-2.313,-2.3146,-2.3143,-2.3174,-2.319,-2.3221,-2.3233,-2.3223,-2.3282,-2.3299,-2.3346,-2.3358,-2.3371,-2.338,-2.3366,-2.3422,-2.3428,-2.3432,-2.3449,-2.3456,-2.3376,-2.3376,-2.3376,-2.3376,0,-2.3115,-2.3142,-2.3164,-2.3193,-2.3212,-2.3242,-2.3253,-2.3272,-2.3274,-2.3284,-2.3324,-2.3343,-2.3374,-2.3386,-2.3388,-2.3434,-2.3428,-2.3421,-2.3403,-2.344,-2.3456,-2.3463,-2.3378,-2.3377,-2.3377,-2.3377,0,0,-2.3164,-2.3196,-2.3204,-2.3218,-2.3244,-2.3266,-2.3298,-2.3326,-2.3342,-2.3365,-2.3391,-2.3432,-2.3426,-2.3443,-2.3448,-2.347,-2.3509,-2.346,-2.3461,-2.3468,-2.3562,-2.3566,-2.3573,-2.3508,-2.351,-2.3511,-2.3559,0,-2.3207,-2.326,-2.3267,-2.3314,-2.334,-2.3339,-2.3367,-2.3387,-2.3398,-2.3422,-2.3435,-2.3463,-2.3453,-2.3464,-2.3486,-2.35,-2.3528,-2.3497,-2.3533,-2.3535,-2.3525,-2.3582,-2.3586,-2.3631,-2.3566,-2.3567,-2.3568,0,-2.3265,-2.3288,-2.3337,-2.3361,-2.3372,-2.3396,-2.3424,-2.3448,-2.3471,-2.3478,-2.3498,-2.3501,-2.3534,-2.3517,-2.3564,-2.3543,-2.3559,-2.3569,-2.3571,-2.3573,-2.3552,-2.3585,-2.3645,-2.3651,-2.3578,-2.3577,-2.3576,0,-2.3294,-2.3338,-2.3374,-2.3386,-2.3414,-2.3432,-2.3445,-2.3467,-2.3484,-2.351,-2.3521,-2.3551,-2.3567,-2.359,-2.3601,-2.3587,-2.3648,-2.3631,-2.3655,-2.3655,-2.3666,-2.3665,-2.3729,-2.3679,-2.3679,-2.3679,-2.3678,0,-2.3341,-2.3372,-2.3387,-2.3409,-2.3444,-2.3452,-2.3487,-2.35,-2.352,-2.3546,-2.3548,-2.3572,-2.3586,-2.3612,-2.3622,-2.366,-2.3667,-2.3674,-2.3676,-2.3673,-2.3672,-2.3682,-2.3679,-2.368,-2.368,-2.368,-2.3679,0,-2.3379,-2.3391,-2.3429,-2.3454,-2.3461,-2.3485,-2.3507,-2.3529,-2.3541,-2.3573,-2.3581,-2.36,-2.3631,-2.3645,-2.3685,-2.3691,-2.3734,-2.3734,-2.3725,-2.3726,-2.3748,-2.3745,-2.382,-2.383,-2.3774,-2.3775,-2.3775,0,-2.3407,-2.3431,-2.3458,-2.3474,-2.3488,-2.3515,-2.3532,-2.3543,-2.3562,-2.3591,-2.361,-2.3642,-2.3667,-2.3718,-2.3736,-2.3767,-2.3767,-2.3791,-2.3772,-2.3768,-2.3766,-2.3764,-2.3767,-2.3794,-2.3795,-2.3795,-2.3795,0,-2.3457,-2.3462,-2.3486,-2.3514,-2.3534,-2.3557,-2.3579,-2.3593,-2.3607,-2.3628,-2.366,-2.368,-2.372,-2.3752,-2.3784,-2.3799,-2.38,-2.3802,-2.3809,-2.3805,-2.3798,-2.3802,-2.3734,-2.38,-2.3799,-2.3799,-2.3799,-2.3798,-2.349,-2.3511,-2.3533,-2.3561,-2.3579,-2.3599,-2.3621,-2.3635,-2.3662,-2.3694,-2.37,-2.3734,-2.3759,-2.3802,-2.3819,-2.3847,-2.3841,-2.3851,-2.3854,-2.3856,-2.3856,-2.3795,-2.3853,-2.3853,-2.3853,-2.3853,-2.3853,0,-2.3538,-2.3553,-2.3578,-2.3609,-2.3631,-2.363,-2.3655,-2.3674,-2.3703,-2.3726,-2.3751,-2.3789,-2.382,-2.3841,-2.3873,-2.3891,-2.3893,-2.3899,-2.3897,-2.3901,-2.386,-2.385,-2.3898,-2.3898,-2.3898,-2.3898,-2.3898,-2.3898,-2.3566,-2.3601,-2.3609,-2.3653,-2.3668,-2.37,-2.3715,-2.3734,-2.3753,-2.3794,-2.3819,-2.3833,-2.3855,-2.3889,-2.3918,-2.3924,-2.3935,-2.3942,-2.3948,-2.3909,-2.3904,-2.3899,-2.389,-2.3945,-2.3945,-2.3986,-2.3986,-2.3987]},{"header":{"parameterUnit":"m.s-1","parameterCategory":1,"la1":30.2991,"la2":30.254,"lo1":-89.0895,"lo2":-89.0444,"dy":0.0017,"dx":0.0017,"nx":28,"ny":28,"refTime":"2023-10-22T03:00:00:Z","depth":0,"parameterNumber":3,"parameterNumberName":"V-component_of_WINDS"},"data":[0,0,0,0,0,0,0,0,0,0,0,0,0,0,0,0,0,0,0,0,0,0,0,0,0,0,0,0,0,0,0,0,0,0,0,0,0,0,0,0,0,0,0,0,0,0,0,0,0,0,0,0,0,0,0,0,0,0,1.0109,1.0109,0,1.0085,1.0084,1.0084,1.0095,1.0096,1.0097,1.0097,1.0069,1.0067,1.0066,0,0,0,0,0,0,0,0,0,0,0,0,0,1.0163,1.0162,1.0109,1.0109,1.0109,1.0085,1.0084,1.0084,1.0095,1.0096,1.0097,1.0097,1.0069,1.0067,1.0066,0,0,0,0,0,0,0,0,0,0,0,0,0,1.0139,1.0162,1.0109,1.0112,1.0111,1.0085,1.0084,1.0084,1.0095,1.0096,1.0097,1.0098,1.007,1.0068,1.0066,1.0034,0,0,1.0059,1.0059,0,0,0,0,0,0,0,0,1.014,1.0137,1.0112,1.0111,1.0111,1.0094,1.0093,1.0067,1.0095,1.0101,1.0097,1.0098,1.0076,1.0074,1.0067,1.0033,1.0032,1.0059,1.0058,1.0057,1.0057,0,0,0,0,0,0,0,1.0142,1.0138,1.01,1.0111,1.0111,1.0113,1.011,1.0088,1.0084,1.0101,1.0101,1.0099,1.0076,1.0069,1.0066,1.0031,1.0059,1.0058,1.0056,1.0055,0.997,0.9969,0,0,0,0,0,0,1.0144,1.0139,1.01,1.0099,1.0129,1.0111,1.0108,1.0099,1.0084,1.0083,1.0098,1.0099,1.0072,1.0069,1.0065,1.0028,1.0057,1.0055,1.0054,0.9972,0.997,0.9969,0,0,0,0,0,0,1.0145,1.0141,1.0101,1.0119,1.0115,1.0109,1.0098,1.0098,1.009,1.0082,1.0081,1.0091,1.0072,1.0068,1.0042,1.0027,1.0054,1.0053,0.9973,0.9971,0.997,0.9952,0,0,0,0,0,0,1.0147,1.0141,1.013,1.0119,1.0114,1.008,1.0097,1.0096,1.0087,1.0089,1.0075,1.0074,1.0073,1.0045,1.004,1.0024,1.0051,0.9974,0.9972,0.997,0.9954,0.995,0.9947,0,0,0,0,0,1.0149,1.0125,1.0129,1.0124,1.01,1.0079,1.0075,1.0075,1.0086,1.0074,1.0069,1.0074,1.0029,1.0042,1.0037,1.002,0.9975,0.9973,0.997,0.9956,0.9951,0.9947,0,0,0,0,0,0,1.0133,1.0124,1.0128,1.0101,1.0091,1.0081,1.0066,1.007,1.0056,1.0058,1.0058,1.0055,1.0028,1.0021,1.0036,0.9989,1.0004,1.0,0.9994,0.999,0.9986,0.9988,1.0049,0,0,0,0,0,1.0126,1.0111,1.0104,1.008,1.0075,1.0071,1.0062,1.0063,1.0052,1.0047,1.004,1.0028,1.0011,1.0,0.9984,0.9953,0.995,0.9939,0.9936,0.9933,0.9929,0.9912,0.9907,0.9961,0.9961,0.9961,0,0,1.0112,1.0106,1.0096,1.0077,1.0069,1.0052,1.0067,1.0049,1.0036,1.0044,1.002,1.0014,1.0,0.9972,0.9959,0.9966,0.9914,0.993,0.9927,0.9926,0.9909,0.9904,0.9899,0.996,0.996,0.996,0,0,1.0079,1.0072,1.0052,1.0044,1.0033,1.003,1.0025,1.0015,1.0012,0.9987,0.9993,0.9977,0.9948,0.9938,0.993,0.9892,0.9897,0.9887,0.9868,0.9851,0.9847,0.9843,0.9829,0.9824,0.9884,0.9884,0.9884,0,1.0062,1.0039,1.0041,1.0022,1.0013,1.0021,1.0,0.9991,0.9975,0.9968,0.9976,0.994,0.9932,0.9901,0.9892,0.9885,0.9878,0.9888,0.9847,0.9844,0.984,0.9827,0.9822,0.9883,0.9883,0.9883,0.9883,0,1.0019,1.0002,0.9987,0.9972,0.9962,0.9942,0.994,0.9928,0.993,0.9927,0.9901,0.9892,0.9874,0.9867,0.9868,0.9836,0.984,0.9848,0.9862,0.9834,0.9821,0.9816,0.9881,0.9881,0.9882,0.9882,0,0,0.9974,0.9961,0.9955,0.9949,0.9937,0.9923,0.9903,0.9887,0.9877,0.9865,0.9848,0.9823,0.9831,0.9821,0.9821,0.9806,0.9776,0.9815,0.9815,0.9808,0.974,0.9734,0.9728,0.978,0.9779,0.9778,0.9741,0,0.9939,0.9906,0.9907,0.9875,0.986,0.9867,0.9849,0.9839,0.9835,0.982,0.9816,0.9798,0.9809,0.9803,0.9789,0.9783,0.9763,0.9786,0.9762,0.9762,0.9765,0.9721,0.9715,0.968,0.9736,0.9735,0.9734,0,0.9894,0.9882,0.9849,0.984,0.9833,0.9817,0.9802,0.9788,0.9777,0.9775,0.9764,0.9767,0.9745,0.9761,0.9731,0.9747,0.9737,0.9733,0.9731,0.9729,0.9746,0.9717,0.9669,0.9664,0.9727,0.9727,0.9728,0,0.9865,0.984,0.9817,0.9811,0.9799,0.9788,0.9782,0.9772,0.9762,0.9748,0.9742,0.9725,0.9716,0.9703,0.9701,0.9712,0.9671,0.9686,0.9668,0.9668,0.9658,0.9659,0.9608,0.9653,0.9653,0.9653,0.9653,0,0.9826,0.9805,0.9804,0.979,0.9766,0.9767,0.9744,0.9739,0.973,0.9714,0.9719,0.9703,0.9702,0.9685,0.9683,0.9659,0.9654,0.9652,0.9651,0.9651,0.9651,0.9645,0.9647,0.9652,0.9652,0.9652,0.9652,0,0.9788,0.9787,0.9762,0.9753,0.9751,0.9734,0.9725,0.9711,0.9708,0.9688,0.9683,0.9678,0.9659,0.9656,0.9633,0.9632,0.9602,0.9605,0.9607,0.9607,0.9589,0.959,0.9531,0.9523,0.9573,0.9573,0.9573,0,0.9764,0.9748,0.9738,0.9728,0.9722,0.9706,0.9696,0.9696,0.9686,0.9671,0.9659,0.9641,0.9627,0.9596,0.9589,0.9572,0.9574,0.9554,0.9571,0.9571,0.9573,0.9574,0.9572,0.9551,0.955,0.955,0.9549,0,0.9719,0.9719,0.9706,0.9691,0.968,0.9668,0.9657,0.9649,0.9647,0.9635,0.9616,0.9605,0.9583,0.9565,0.9548,0.954,0.9544,0.9544,0.9539,0.9539,0.954,0.9539,0.9597,0.9546,0.9546,0.9546,0.9546,0.9547,0.9687,0.9674,0.9664,0.9649,0.9641,0.963,0.9617,0.9612,0.9597,0.958,0.958,0.956,0.9548,0.9526,0.9518,0.9501,0.9507,0.9499,0.9497,0.9496,0.9494,0.9543,0.9498,0.9498,0.9498,0.9498,0.9498,0,0.9643,0.9637,0.9623,0.9608,0.9595,0.9602,0.959,0.9578,0.9561,0.955,0.9536,0.9514,0.9497,0.9489,0.9471,0.9459,0.9461,0.9455,0.9455,0.9453,0.9489,0.9496,0.9454,0.9454,0.9454,0.9454,0.9454,0.9454,0.9619,0.9596,0.9595,0.9568,0.9562,0.9543,0.9536,0.9526,0.9517,0.9493,0.9479,0.9474,0.9464,0.9446,0.943,0.9428,0.9421,0.9414,0.9413,0.9446,0.9451,0.9455,0.9461,0.9413,0.9413,0.9378,0.9378,0.9377]}]]